Погода Остров Хейса

Погода Остров Хейса : погода сейчас, прогноз погоды и архив. Всё, что Вы хотите узнать о погоде Остров Хейса!

Поиск расширенной информации на нашем сайте:

Другие новости

Новости СМИ2

Главная страница сайта

Новости сайта

03.07.2017

Напоминаем, что на нашем специализированном сайте Метеоцентр.Азия вы можете получить высокодетализированные автоматические прогнозы погоды по пунктам России, СНГ и мира в авиационном формате (включающие направление и скорость ветра, видимость, явления погоды, количество и форму облачности, нижнюю и верхнюю границу облачности).

Рекомендуем: Свадебные арки в Киеве - http://flordekor.com.ua/index.php?p=9 Флордекор.

Погода Остров Хейса - сегодня

Время (UTC), дата Ветер
(°,м/с) 
Видим.   Явления Облачность Т
(°С)
Тd
(°С)
f(%) Тe
(°С)
Pmin
(гПа)
dP
(гПа)
Po
(мм)
O2
(г/м3)
Тmin Tmax R s Состояние
почвы
09 20.02.18 050 (СВ) 20000 м    4/0 верхняя 
[Ci fib]
-22.8 -25 82 -30  1038.6  0.7  777  343           
12 20.02.18 060 (СВ) 20000 м    8/0 средняя, верхняя 
[Ac trans|Ci fib]
-21.9 -24 83 -28  1039.1  0.5  777  342           
15 20.02.18 050 (СВ) 20000 м    6/0 верхняя 
[Ci fib]
-22 -24.1 83 -27  1039  -0.1  777  342           
18 20.02.18 030 (СВ) 20000 м    3/0 верхняя 
[Ci fib]
-21.5 -23.7 82 -28  1038.8  -0.2  777  341    -20.8       
21 20.02.18 050 (СВ) 20000 м    8/3 600 м средняя, верхняя 
[Sc|Ac trans|Ci fib]
-21.8 -23.9 83 -25  1038.9  0.1  777  342           
00 21.02.18 тихо ()   20000 м    9/0 средняя 
[Ac trans]
-22.2 -24.4 82 -22  1039.1  0.2  777  343           
03 21.02.18 220 (ЮЗ) 20000 м    4/1 600 м средняя 
[Sc|Ac trans]
-24.2 -26.7 80 -25  1039.2  0.1  777  345           
09 21.02.18 080 (В) 4000 м  дымка  4/0 верхняя 
[Ci fib]
-23.3 -25.7 81 -24  1040.1  0.6  778  344           
12 21.02.18 130 (ЮВ) 4000 м  дымка  3/0 верхняя 
[Ci fib]
-21.2 -23.2 84 -22  1040.5  0.4  778  342           
15 21.02.18 080 (В) 20000 м    3/0 верхняя 
[Ci fib]
-22.9 -25.1 82 -23  1040.9  0.4  778  344           
18 21.02.18 тихо ()   20000 м    3/0 верхняя 
[Ci fib]
-21.5 -23.6 83 -22  1041.2  0.4  779  342    -21.1       
21 21.02.18 тихо ()   20000 м    ясно 
-23.1 -25.4 81 -23  1041.9  0.6  779  345           
00 22.02.18 тихо ()   20000 м    4/3 600 м средняя 
[Sc|Ac trans]
-22.1 -24.2 83 -22  1042.4  0.5  779  343           
03 22.02.18 тихо ()   20000 м    5/0 средняя 
[Ac trans]
-21.5 -23.5 84 -22  1042.6  0.2  780  343           
06 22.02.18 тихо ()   20000 м    1/0 верхняя 
[Ci fib]
-25.1 -27.6 80 -25  1043.3  0.7  780  348           
09 22.02.18 тихо ()   20000 м    3/0 верхняя 
[Ci fib]
-21.3 -23.6 82 -21  1043.9  0.7  781  343           
12 22.02.18 тихо ()   20000 м    3/0 верхняя 
[Ci fib]
-21.9 -24 83 -22  1044.9  0.9  781  344           
15 22.02.18 тихо ()   20000 м    1/0 верхняя 
[Ci fib]
-21.4 -23.3 85 -21  1045.3  0.4  782  343           
18 22.02.18 тихо ()   20000 м    ясно 
-21.4 -23.5 83 -21  1046.2  0.9  782  344    -20.1       
21 22.02.18 тихо ()   20000 м    ясно 
-22.2 -24.3 83 -22  1047.2  783  345           
03 23.02.18 тихо ()   20000 м    3/0 средняя, верхняя 
[Ac trans|Ci fib]
-22.8 -24.9 83 -23  1048.3  0.6  784  346           
06 23.02.18 тихо ()   20000 м    4/0 средняя, верхняя 
[Ac trans|Ci fib]
-21.6 -23.7 83 -22  1048.1  -0.2  784  345           
09 23.02.18 тихо ()   20000 м    1/0 верхняя 
[Ci fib]
-18.7 -20.6 85 -19  1048.6  0.5  784  341           
12 23.02.18 тихо ()   4000 м  дымка  ясно 
-19.4 -21.3 85 -19  1048.9  0.4  784  342           
15 23.02.18 190 (Ю) 4000 м  дымка  ясно 
-17.2 -18.8 87 -20  1048.3  -0.7  784  339           
Время (UTC), дата Ветер
(°,м/с) 
Видим.   Явления Облачность Т
(°С)
Тd
(°С)
f(%) Тe
(°С)
Pmin
(гПа)
dP
(гПа)
Po
(мм)
O2
(г/м3)
Тmin Tmax R s Состояние
почвы

Для получения пояснительной информации подведите курсор к названию столбца.

ПОГОДА Остров Хейса - архив

Всё, что Вы хотите узнать о погоде Остров Хейса - удобно и подробно!

Выберите нужную дату (начиная с 1 января 2015* года) и нажмите кнопку "Найти".
Будут отображены архивные сводки погоды по пункту Остров Хейса, начиная с указанной даты.


Отображать данные в формате CSV (для использования в таблицах Excel)


Внимание! Наш архив погоды предназначен исключительно для личного некоммерческого использования в познавательных целях. Если Вам необходимы официальные справки о состоянии погоды (для производственных, юридических, коммерческих и т.п. целей), обращайтесь в органы Росгидромета.

*Примечание: данная дата относится к архиву по метеостанциям СССР (Россия, СНГ, Балтия).
Архив по метеостанциям Зарубежной Европы и Азии (кроме Китая) хранится 10 дней, по другим регионам земного шара (Китай, Африка, Америка, Австралия, Океания) - 1 день.

Остров Хейса - район местоположения метеостанции


Название, широта, долгота, высота метеостанции:
Остров Хейса (Обсерватория Им.Кренкеля) 80.6°ш. 58.1°д. 22 м над ур. моря [Российская Федерация]

Дополнительная информация

В oтличие oт бoльшинства пoгoдных сайтoв мы публикуем пoдрoбную метеoинфoрмацию в детальнoм прoфессиoнальнoм фoрмате.

Характеристики температуры и влажнoсти вoздуха измеряются на высoте 2 м в тени вдали oт зданий и деревьев.
Скoрoсть ветра измеряется на высoте 10 м (на урoвне рoста челoвека скoрoсть ветра ниже в 1.5-2 раза). Если метеoстанция нахoдится в гoрoде или в лесу, тo скoрoсть ветра занижена на 2-4 м/с пo сравнению с oткрытым местoм. Скoрoсть ветра над акватoриями крупных рек и oзёр, а также на вершинах хoлмoв на 2-5 м/с выше, чем в oбычных услoвиях.
Атмoсфернoе давление в разных тoчках местнoсти мoжет значительнo oтличаться oт давления на метеoстанции, в зависимoсти oт услoвий рельефа (при пoдъёме на 10 м давление пoнижается примернo на 1 мм рт.ст.).